Home   Weather   Havana   Past weeks
Flag for Cuba

Past Weather in Havana, Cuba — Yesterday and Last 2 Weeks

Now
75 °F

Passing clouds.


Feels Like: 73 °F
Forecast: 88 / 74 °F
Wind: 2 mph from East

Location: Aeropuerto Jose Marti - Rancho-Boyeros - Habana

Current Time: Oct 22, 2019 at 10:16:13 am

Latest Report: Oct 22, 2019 at 7:55 am


Visibility: 6 mi

Pressure: 30.01 "Hg

Humidity: 100%

Dew Point: 75 °F

Location of HavanaLocation

Past Weather in Havana — Graph

°F

Havana Temperature Yesterday

Maximum temperature yesterday: 91 °F (at 4:55 pm)
Minimum temperature yesterday: 73 °F (at 12:55 am)
Average temperature yesterday: 81 °F

High & Low Weather Summary for the Past Weeks

 TemperatureHumidityPressure
High91 °F (Oct 16, 1:55 pm)100% (Oct 7, 7:55 am)30.04 "Hg (Oct 7, 7:55 am)
Low70 °F (Oct 11, 5:55 am)55% (Oct 12, 12:55 pm)29.83 "Hg (Oct 7, 7:55 am)
Average79 °F89%29.93 "Hg
* Reported Oct 7 7:55 am — Oct 22 7:55 am, Havana. Weather by CustomWeather, © 2019

Note: Actual official high and low records may vary slightly from our data, if they occured in-between our weather recording intervals... More about our weather records

Advertising

Havana Weather History for the Previous 24 Hours

Scroll right to see more
 ConditionsComfort  
Time TempWeatherWind HumidityBarometerVisibility
7:55 am
Tue, Oct 22
75 °FPassing clouds.2 mph100%30.01 "Hg6 mi
6:55 am75 °FPassing clouds.5 mph100%30.01 "Hg6 mi
5:55 am75 °FPassing clouds.2 mph100%30.01 "Hg6 mi
4:55 am75 °FPassing clouds.3 mph100%29.98 "Hg6 mi
3:55 am77 °FPassing clouds.2 mph100%29.98 "Hg6 mi
2:55 am77 °FPassing clouds.1 mph100%30.01 "Hg6 mi
1:55 am77 °FPassing clouds.2 mph100%30.01 "Hg6 mi
12:55 am77 °FPassing clouds.2 mph100%30.01 "Hg6 mi
11:55 pm
Mon, Oct 21
77 °FPassing clouds.3 mph100%30.01 "Hg6 mi
10:55 pm79 °FPassing clouds.2 mph94%30.01 "Hg6 mi
9:55 pm81 °FPassing clouds.6 mph89%30.01 "Hg6 mi
8:55 pm81 °FPassing clouds.6 mph89%29.98 "Hg6 mi
7:55 pm81 °FPassing clouds.8 mph84%29.98 "Hg6 mi
6:55 pm84 °FScattered clouds.9 mph74%29.95 "Hg6 mi
5:55 pm86 °FScattered clouds.10 mph75%29.95 "Hg6 mi
4:55 pm91 °FScattered clouds.No wind59%29.95 "Hg6 mi
3:55 pm86 °FScattered clouds.2 mph70%29.95 "Hg6 mi
2:55 pm90 °FPartly sunny.5 mph59%29.95 "Hg6 mi
1:55 pm90 °FPartly sunny.7 mph59%29.98 "Hg6 mi
12:55 pm88 °FPartly sunny.5 mph62%30.01 "Hg6 mi
11:55 am88 °FScattered clouds.7 mph62%30.01 "Hg6 mi
10:55 am86 °FPassing clouds.7 mph75%30.01 "Hg6 mi
Weather by CustomWeather, © 2019

See weather overview